Volver al catálogo

CZ-6A DEB

ActivoPO
NORAD 61358·DEBRIS·🇨🇳 China

Lanzado Aug 6, 2024 desde Taiyuan Satellite Launch Center

Loading…

Próximos Pases (próximas 24 horas)

TLE

ActualizadoSource: Space-Track

Época: Sep 13, 2026, 10:45 UTC

1 61358U 24140VX  26256.44800719  .00000681  00000-0  16635-3 0  9997
2 61358  88.9231 253.5234 0085154 333.3719  26.3125 14.49352970107115

Sigue CZ-6A DEB en tiempo real con AllMySat

Download on the App Store